Location: Howard City Library
(37.4684°N, 96.2639°W)
Time: 10:32:49
(UTC+00:00)

NOSS 3-1 (A) - Pass Details

Date: 18 February 2020
Orbit: 761 x 1452 km, 63.4° (Epoch: 26 March)

Event Time Altitude Azimuth Distance (km) Brightness Sun altitude
Rises 00:38:07 0° 170° (S) 3,217 6.2 -7.0°
Reaches altitude 10° 00:41:02 10° 153° (SSE) 2,332 5.3 -7.6°
Maximum altitude 00:44:46 20° 107° (ESE) 1,837 4.4 -8.3°
Drops below altitude 10° 00:48:44 10° 63° (ENE) 2,530 5.1 -9.1°
Enters shadow 00:49:01 - 61° (ENE) 2,608 5.2 -9.1°
